• Processing (Info)

  • MPEC 2011-T35 : 2011 TP6

    The following Minor Planet Electronic Circular may be linked-to from your own Web pages, but must not otherwise be redistributed electronically.

    A form allowing access to any MPEC is at the bottom of this page.


    Read MPEC 2011-T34 Read MPEC 2011-T36


    M.P.E.C. 2011-T35                                Issued 2011 Oct. 6, 16:35 UT
    
         The Minor Planet Electronic Circulars contain information on unusual
             minor planets and routine data on comets.  They are published
       on behalf of Commission 20 of the International Astronomical Union by the
              Minor Planet Center, Smithsonian Astrophysical Observatory,
                              Cambridge, MA 02138, U.S.A.
    
                 Prepared using the Tamkin Foundation Computer Network
    
                                  MPC@CFA.HARVARD.EDU
                URL https://www.minorplanetcenter.net/    ISSN 1523-6714
    
                                       2011 TP6
    
    Observations:
         K11T06P* C2011 10 03.42526 00 43 59.62 +06 27 14.2          20.9 VrET035G96
         K11T06P  C2011 10 03.42934 00 43 59.98 +06 27 09.6          20.8 VrET035G96
         K11T06P  C2011 10 03.43340 00 44 00.27 +06 27 04.8          20.9 VrET035G96
         K11T06P KC2011 10 04.17039100 45 28.29 +06 13 35.2          20.3 VtET035H21
         K11T06P KC2011 10 04.17811200 45 28.97 +06 13 26.5          20.9 VtET035H21
         K11T06P IC2011 10 04.18583700 45 29.66 +06 13 18.2                tET035H21
         K11T06P IC2011 10 04.19317100 45 30.25 +06 13 09.8                tET035H21
         K11T06P FC2011 10 04.90522 00 46 52.51 +05 59 32.5          19.9 VuET035C75
         K11T06P FC2011 10 04.90989 00 46 52.93 +05 59 27.3          19.9 VuET035C75
         K11T06P KC2011 10 04.93558 00 46 55.55 +05 58 57.9                tET035204
         K11T06P KC2011 10 04.96076 00 46 57.86 +05 58 28.8          20.0 RtET035204
         K11T06P KC2011 10 06.15070900 49 24.82 +05 34 48.7          21.1 VtET035H21
         K11T06P KC2011 10 06.16618200 49 26.29 +05 34 29.9          21.0 VtET035H21
         K11T06P KC2011 10 06.18157800 49 27.80 +05 34 11.7          21.2 VtET035H21
         K11T06P  C2011 10 06.23911 00 49 35.36 +05 33 09.8          20.5 VrET035G96
         K11T06P  C2011 10 06.24304 00 49 35.72 +05 33 05.1          20.7 VrET035G96
         K11T06P  C2011 10 06.24701 00 49 36.15 +05 33 00.0          20.9 VrET035G96
         K11T06P  C2011 10 06.25088 00 49 36.48 +05 32 55.3          20.7 VrET035G96
         K11T06P  C2011 10 06.25746 00 49 37.04 +05 32 46.9          20.6 VrET035G96
         K11T06P  C2011 10 06.26189 00 49 37.46 +05 32 41.2          20.9 VrET035G96
         K11T06P  C2011 10 06.26633 00 49 37.93 +05 32 36.0                rET035G96
         K11T06P  C2011 10 06.27077 00 49 38.28 +05 32 30.8                rET035G96
    
    Observer details:
    204 Schiaparelli Observatory.  Observer L. Buzzi.  0.60-m f/4.64 reflector
        + CCD.
    C75 Whitestar Observatory, Borgobello.  Observers E. Magrin, V. Gonano.
        Measurer E. Magrin.  0.38-m f/4.4 Newtonian reflector + CCD.
    G96 Mt. Lemmon Survey.  Observers R. E. Hill, R. A. Kowalski.  Measurers
        J. D. Ahern, E. C. Beshore, A. Boattini, G. J. Garradd, A. R. Gibbs,
        A. D. Grauer, R. E. Hill, R. A. Kowalski, S. M. Larson, R. H. McNaught.
        1.5-m reflector + CCD.
    H21 Astronomical Research Observatory, Westfield.  Observer R. Holmes.
        Measurers T. Vorobjov, S. Foglia, L. Buzzi.  0.61-m f/4.0 astrograph + CCD.
    
    Orbital elements:
    2011 TP6                                                 Earth MOID = 0.0450 AU
    Epoch 2011 Aug. 27.0 TT = JDT 2455800.5                 MPC
    M 303.34608              (2000.0)            P               Q
    n   0.65153609     Peri.  226.78241     +0.50406098     -0.86360828
    a   1.3177825      Node   192.95969     +0.80495573     +0.47402637
    e   0.2232384      Incl.    2.59707     +0.31299966     +0.17169664
    P   1.51           H   25.5           G   0.15           U   8
    Residuals in seconds of arc
    111003 G96  0.1+  0.2+    111004 C75  0.0   0.1+    111006 G96  0.6+  0.1-
    111003 G96  0.3+  0.1+    111004 204  0.6-  0.1-    111006 G96  0.2+  0.0
    111003 G96  0.6-  0.3-    111004 204  0.2+  0.1-    111006 G96  0.4-  0.4-
    111004 H21  0.3-  0.2+    111006 H21  0.1-  0.2+    111006 G96  0.2-  0.6-
    111004 H21  0.1+  0.0     111006 H21  0.5-  0.3+    111006 G96  0.8+  0.3-
    111004 H21  0.6+  0.1+    111006 H21  0.2+  0.9+    111006 G96  0.0   0.0
    111004 H21  0.3+  0.2-    111006 G96  0.3-  0.0
    111004 C75  0.0   0.1-    111006 G96  0.3-  0.1+
    
    Ephemeris:
    2011 TP6                 a,e,i = 1.32, 0.22, 3                   q = 1.0236
    Date    TT    R. A. (2000) Decl.     Delta      r     Elong.  Phase     V
    2011 09 06    00 11 16.9 +09 23 49   0.1827  1.1768   155.5    20.8    23.2
    ...
    2011 09 21    00 26 26.6 +08 55 58   0.1283  1.1294   166.7    11.8    22.0
    ...
    2011 09 29    00 36 46.5 +07 36 41   0.1050  1.1063   173.0     6.3    21.3
    ...
    2011 10 05    00 47 02.1 +05 58 46   0.09011 1.0903   177.9     1.9    20.7
    2011 10 06    00 49 03.2 +05 38 52   0.08783 1.0877   178.7     1.2    20.6
    2011 10 07    00 51 10.6 +05 17 51   0.08559 1.0852   179.4     0.6    20.4
    ...
    2011 10 13    01 06 28.9 +02 47 06   0.07335 1.0710   175.2     4.5    20.4
    ...
    2011 10 21    01 35 40.4 -01 46 39   0.06013 1.0545   167.7    11.6    20.2
    ...
    2011 11 05    03 07 15.9 -12 57 45   0.04643 1.0324   150.7    28.0    20.1
    
    A. U. Tomatic                (C) Copyright 2011 MPC           M.P.E.C. 2011-T35
    

    Read MPEC 2011-T34 Read MPEC 2011-T36


    MPEC number:

    Enter an MPEC number in one of the following forms:

    • 1997-B01 (the full form)
    • J97B01 (the packed version of the full form)
    • B01 (the abbreviated form)